GFSMW_prec_cloud_096.txt.gz
Cloud_Cover
93 65 100 6 11 28 22 4 34 100 86 100 100 100 100 100 100 100 100 100 100 100 100 100 100 100 100 100 100 100 100 100 100 100 100 100 100 100 100 100 100 100 100
15 100 100 16 21 46 27 30 65 100 96 88 92 100 100 100 100 100 100 100 100 100 100 100 100 100 100 100 100 100 100 100 100 100 100 100 82 96 100 100 100 100 100
4 100 100 96 60 50 47 40 71 89 60 98 44 100 100 100 100 100 100 100 100 100 100 100 100 100 100 100 100 100 100 100 100 100 100 100 100 100 98 100 100 100 100
63 100 100 61 46 52 27 31 68 78 91 85 75 94 100 100 100 100 100 100 100 100 100 100 100 100 100 100 100 100 100 100 100 100 100 100 100 100 100 100 100 100 100
97 100 62 5 29 52 38 38 90 100 100 51 87 100 100 100 100 100 100 100 100 100 100 100 100 100 100 100 100 100 100 100 100 100 100 100 100 100 100 100 100 100 100
74 100 100 54 91 57 36 37 100 100 100 33 46 100 100 100 100 100 100 100 100 100 100 100 100 100 100 100 100 100 100 100 100 100 100 100 100 100 100 100 100 100 100
65 100 100 81 100 84 45 53 100 100 100 43 90 99 100 84 100 95 100 100 100 100 100 100 100 100 100 100 100 100 100 100 100 100 100 100 100 100 100 100 100 100 100
91 100 92 67 54 58 44 51 100 100 100 40 24 35 94 74 97 100 100 100 100 100 100 100 100 100 100 100 100 100 100 100 100 100 100 100 100 100 100 100 100 100 100
100 100 25 64 100 100 100 58 72 100 100 38 26 52 74 62 100 100 100 100 100 100 100 100 100 100 100 100 100 100 100 100 100 100 100 100 100 100 100 100 100 100 100
100 100 97 99 100 100 100 100 66 82 100 66 32 15 20 7 100 100 100 100 100 100 100 100 100 100 100 100 100 100 100 100 100 100 100 100 100 100 100 100 100 100 100
100 100 100 100 99 100 100 100 99 61 100 96 26 83 30 47 77 97 100 100 100 100 100 100 100 100 100 100 100 100 100 100 100 100 100 100 100 100 100 100 100 100 100
100 100 100 100 100 100 100 100 32 34 90 100 36 100 100 98 90 100 100 100 95 99 100 100 100 100 100 100 100 100 100 100 100 100 100 100 100 100 100 100 100 100 100
100 100 100 100 100 100 100 100 100 5 5 28 62 99 100 100 100 100 100 100 100 100 100 100 100 100 100 100 100 100 100 100 100 100 100 100 100 100 100 94 77 100 100
50 94 100 100 100 12 92 100 96 29 14 5 30 89 100 100 100 100 100 100 100 89 89 100 100 100 100 100 100 100 100 100 100 100 100 100 100 84 82 70 64 84 47
93 98 99 98 100 100 100 100 100 100 47 26 6 34 100 100 100 100 100 100 100 30 1 1 16 79 100 100 100 100 98 99 99 100 100 100 88 100 72 32 90 69 87
100 100 94 100 100 100 100 99 44 74 98 30 5 5 91 100 100 100 100 100 95 96 100 36 5 5 2 0 5 26 24 51 95 82 100 100 100 100 100 100 100 100 100
46 97 98 100 100 99 100 100 100 100 100 100 100 12 5 10 88 100 100 100 100 100 100 100 97 18 10 5 5 5 21 39 60 99 100 100 100 100 100 100 100 100 100
100 76 62 99 100 78 75 100 100 100 100 100 100 100 56 31 42 47 94 100 100 100 100 100 99 100 100 96 82 63 100 100 100 100 100 100 100 100 100 100 100 100 100
100 100 100 65 97 92 99 100 100 100 96 100 100 100 100 100 90 100 100 100 100 100 100 100 48 98 100 100 100 100 100 100 100 100 100 100 100 100 100 100 100 100 100
100 100 100 78 94 100 100 100 100 100 98 87 97 100 100 100 100 100 100 100 100 100 100 100 100 100 100 100 100 100 100 100 100 100 100 100 100 100 100 100 100 100 100
100 100 100 100 99 83 80 100 100 100 100 100 100 100 100 100 100 100 100 100 100 100 100 100 100 100 100 100 100 100 100 100 100 100 100 100 100 100 100 100 100 100 100
100 100 100 100 100 100 100 100 100 100 100 100 100 100 100 100 100 100 100 100 100 100 100 100 100 100 100 100 100 100 100 100 100 100 100 100 100 100 100 100 100 100 100
100 100 100 100 100 100 100 100 100 100 100 100 100 100 100 100 100 100 100 100 100 100 100 100 100 100 100 100 100 100 100 100 100 100 100 100 100 100 100 100 100 100 100
100 100 100 100 100 100 100 100 100 100 100 100 100 100 100 100 100 100 100 100 100 100 100 100 100 100 100 100 100 100 100 100 100 100 100 100 100 100 100 100 100 100 100
100 100 100 100 100 100 100 100 100 100 100 100 100 100 100 100 100 100 100 100 100 100 100 100 100 100 100 100 100 100 100 100 100 100 100 100 100 100 100 100 100 100 100
100 100 100 100 100 100 100 100 28 10 52 68 100 100 100 100 99 96 100 100 100 100 100 100 100 100 100 100 100 100 100 100 100 100 100 100 100 100 100 100 100 100 100

GFSMW_prec_cloud_099.txt.gz
Cloud_Cover
100 100 32 21 55 36 100 53 63 92 100 100 100 100 100 100 100 100 100 100 100 100 100 100 100 100 100 100 100 100 100 100 100 100 100 100 100 100 100 100 100 100 100
100 100 94 98 100 71 100 51 38 100 100 100 100 94 96 98 100 100 100 100 100 100 100 100 100 100 100 100 100 100 100 100 100 100 100 100 100 100 100 96 100 100 100
100 100 41 83 100 92 91 57 71 100 100 79 72 91 92 100 100 100 100 100 100 100 100 100 100 100 100 100 100 100 100 100 100 100 100 100 100 100 100 100 100 100 100
58 5 5 47 100 84 90 68 100 100 100 62 100 100 100 100 100 100 100 100 100 100 100 100 100 100 100 100 100 100 100 100 100 100 100 100 100 100 100 100 100 100 100
79 2 1 97 100 99 93 100 100 100 100 47 72 42 92 91 100 99 100 100 98 100 100 100 100 100 100 100 100 100 100 100 100 100 100 100 100 100 100 100 100 100 100
12 4 5 100 100 100 100 100 100 91 63 88 40 2 50 100 82 100 100 100 100 100 100 100 100 100 100 100 100 100 100 100 100 100 100 100 100 100 100 100 100 100 100
2 3 89 100 100 100 100 100 100 100 100 100 46 9 65 62 86 100 100 100 100 100 100 100 100 100 100 100 100 100 100 100 100 100 100 100 100 100 100 100 100 100 100
0 40 100 100 100 100 100 100 100 100 100 100 42 40 23 94 100 100 100 100 100 100 100 100 100 100 100 100 100 100 100 100 100 100 100 100 100 100 100 100 100 100 100
4 60 100 100 96 99 100 85 100 100 100 100 59 32 8 31 6 93 97 100 100 100 100 100 100 100 100 100 100 100 100 100 100 100 100 100 100 100 100 100 100 100 100
100 100 100 100 100 98 94 74 100 96 100 100 70 19 3 5 1 34 100 100 100 100 100 100 100 100 100 100 100 100 100 100 100 100 100 100 100 100 100 100 100 100 100
100 100 100 100 73 70 100 100 100 76 100 100 58 11 14 2 6 1 100 97 99 100 100 100 100 100 100 100 100 100 100 100 100 100 100 100 100 100 100 100 100 100 100
100 100 100 100 63 100 100 100 100 80 100 100 91 8 26 2 4 16 6 96 68 100 100 100 100 100 100 100 100 100 100 100 100 100 100 100 100 100 100 100 100 100 100
100 100 100 100 83 100 100 100 94 100 100 100 100 24 5 11 0 3 5 92 97 4 95 100 100 100 100 100 100 100 100 100 100 100 100 100 100 100 100 100 100 100 100
100 100 100 100 100 100 100 100 100 100 100 100 100 54 5 5 1 0 2 66 100 86 2 52 100 100 100 100 100 100 100 100 100 100 100 100 100 100 100 100 100 100 100
100 100 100 100 100 62 100 100 99 97 100 100 100 100 15 16 5 2 21 64 100 100 94 39 5 73 100 100 100 100 100 100 100 100 100 100 100 100 98 94 100 100 90
100 100 100 100 100 79 100 100 100 100 100 100 100 100 100 49 5 10 67 53 100 100 100 100 100 98 8 0 4 5 27 58 90 98 95 100 100 100 100 100 100 100 100
100 100 100 100 100 100 100 100 100 100 100 100 100 100 100 100 78 100 100 100 100 100 100 100 89 60 40 8 11 5 5 5 6 5 17 100 100 100 100 100 100 100 100
100 100 100 100 100 100 77 95 100 100 100 100 100 100 100 100 100 100 100 100 100 100 100 100 98 37 5 5 6 9 17 28 25 20 58 99 100 100 100 100 100 100 100
100 100 100 100 100 100 100 100 100 100 100 100 100 100 100 100 100 100 100 100 100 100 100 100 100 100 74 35 31 79 90 97 88 100 100 100 100 100 100 100 100 100 100
100 100 100 100 100 100 100 100 100 100 100 100 100 100 100 100 100 100 100 100 100 100 100 100 100 100 100 100 100 100 100 100 100 100 100 100 100 100 100 100 100 100 100
100 100 100 100 100 100 100 100 100 100 100 100 100 100 100 100 100 100 100 100 100 100 100 100 100 100 100 100 100 100 100 100 100 100 100 100 100 100 100 100 100 100 100
100 100 100 100 100 100 100 100 100 100 100 100 100 100 100 100 100 100 100 100 100 100 100 100 100 100 100 100 100 100 100 100 100 100 100 100 100 100 100 100 100 100 100
100 100 100 100 100 100 100 100 100 100 100 100 100 100 100 100 100 100 100 100 100 100 100 100 100 100 100 100 100 100 100 100 100 100 100 100 100 100 100 100 100 100 100
100 100 100 100 100 100 100 100 100 100 100 100 100 100 100 100 100 100 100 100 100 100 100 100 100 100 100 100 100 100 100 100 100 100 100 100 100 100 100 100 100 100 100
100 100 100 100 100 100 100 100 100 100 100 100 100 100 100 100 100 100 100 100 100 100 100 100 100 100 100 100 100 100 100 100 100 100 100 100 100 100 100 100 100 100 100
100 100 100 100 100 100 100 100 100 100 100 99 100 100 100 100 100 100 100 100 100 100 100 100 100 100 100 100 100 100 100 100 100 100 100 100 100 100 100 100 100 100 100

GFSMW_prec_cloud_102.txt.gz
Cloud_Cover
5 5 5 5 10 99 45 26 52 99 47 100 100 100 100 100 100 100 100 88 100 100 100 100 100 100 100 100 100 100 100 100 60 100 98 100 100 71 100 100 100 100 100
4 12 23 75 100 100 85 69 86 100 44 100 100 100 97 100 100 100 100 100 100 100 100 100 100 100 100 100 100 100 100 100 100 100 94 99 100 99 100 96 100 100 100
4 42 52 100 100 100 86 100 88 100 86 63 86 100 100 100 100 100 100 100 100 100 100 100 100 100 100 100 100 100 100 100 100 100 100 100 100 100 100 100 100 100 100
9 97 97 100 100 99 99 100 78 99 90 98 100 100 100 74 85 95 100 100 89 100 100 100 100 100 100 100 100 100 100 100 100 100 100 100 100 100 100 100 100 90 86
23 66 100 99 100 100 99 100 79 100 97 100 100 100 99 60 100 100 100 100 100 100 100 100 100 100 100 100 100 100 100 100 100 100 100 100 100 100 100 100 100 100 100
100 51 76 94 100 99 88 100 100 100 100 100 100 100 90 80 88 100 100 100 96 98 100 100 100 100 100 100 100 100 100 100 100 100 100 100 100 100 100 100 100 100 100
59 43 9 5 38 85 93 100 100 100 100 100 100 62 2 17 100 99 100 100 100 100 100 100 100 100 100 100 100 100 100 100 100 100 100 100 100 100 100 100 100 100 98
7 7 5 0 8 73 100 100 100 100 100 83 57 76 1 4 100 60 100 100 100 100 100 100 100 100 100 100 100 100 100 100 100 100 100 100 100 100 100 100 100 100 100
3 0 0 0 0 41 90 100 100 100 100 11 100 86 25 28 42 47 70 83 100 89 100 100 100 100 100 100 100 100 100 100 100 100 100 100 100 100 100 100 100 100 100
50 0 0 0 2 89 98 100 100 100 100 52 100 74 51 8 0 8 53 93 96 98 100 100 100 100 100 100 100 100 100 100 100 100 100 100 100 100 100 100 100 100 100
85 5 3 0 5 100 88 100 100 100 100 99 100 100 54 21 0 1 20 30 86 100 100 100 100 100 100 100 100 100 100 100 100 100 100 100 100 100 100 100 100 100 100
100 64 17 6 100 100 100 100 100 100 100 100 100 100 36 11 1 17 23 23 11 98 100 100 100 100 100 100 100 100 100 100 100 100 100 100 100 100 100 100 100 100 100
100 100 96 100 100 100 100 100 100 100 100 100 100 100 59 36 18 2 21 1 7 2 88 100 100 100 100 100 100 100 100 100 100 100 100 100 100 100 100 100 100 100 100
100 100 100 100 100 100 100 100 100 100 100 100 100 100 98 68 26 5 5 0 2 52 37 56 93 100 100 100 100 100 100 100 100 100 100 100 100 100 100 100 100 100 100
100 100 100 100 100 100 100 100 100 100 100 100 100 100 100 69 12 5 5 5 1 47 99 68 38 78 58 93 100 100 100 100 100 100 100 100 100 100 100 100 100 100 100
100 100 100 100 100 100 100 100 100 100 100 100 100 100 100 97 99 21 5 6 14 48 100 100 99 100 52 6 5 20 100 100 100 100 100 100 100 100 100 100 100 100 100
100 100 100 100 100 100 100 100 100 100 100 100 100 100 100 100 100 100 100 100 100 100 100 100 100 100 84 92 99 73 36 24 16 26 19 74 100 99 100 100 100 100 100
100 100 100 100 100 100 100 100 100 100 100 100 100 100 100 100 100 100 100 100 100 100 100 100 100 100 100 100 100 96 100 100 100 99 99 88 99 100 100 100 100 100 100
100 100 100 100 100 100 100 100 100 100 100 100 100 100 100 100 100 100 96 100 98 100 100 100 99 100 100 100 100 100 100 100 70 95 79 56 99 100 100 100 100 100 100
100 100 100 100 100 100 100 100 100 100 100 100 100 100 100 100 100 100 100 100 100 98 100 92 100 100 100 100 100 100 100 100 100 100 100 100 100 100 100 100 100 100 100
100 100 100 100 100 100 100 100 100 100 100 100 100 100 100 100 100 100 100 100 100 100 100 100 100 100 100 100 100 100 100 100 100 100 100 100 100 100 100 100 100 100 100
100 100 100 100 100 100 100 100 100 100 100 100 100 100 100 100 100 100 100 100 100 100 100 100 100 100 100 100 100 100 100 100 100 100 100 100 100 100 100 100 100 100 100
100 100 100 100 100 100 100 100 100 100 100 100 100 100 100 100 100 100 100 100 100 100 100 100 100 100 100 100 100 100 100 100 100 100 100 100 100 100 100 100 100 100 100
100 100 100 100 100 100 100 100 100 100 100 100 100 100 100 100 100 100 100 100 100 100 100 100 100 100 100 100 100 100 100 100 100 100 100 100 100 100 100 100 100 100 100
100 100 100 100 100 100 100 100 100 81 100 98 100 100 100 100 100 100 100 100 100 100 100 100 100 100 100 100 100 100 100 100 100 100 100 100 100 100 100 100 100 100 100
100 100 100 100 100 100 100 100 100 100 100 83 99 100 100 100 100 100 100 100 100 100 100 100 100 100 100 100 100 100 100 100 100 100 100 100 100 100 100 100 100 100 100

GFSMW_prec_cloud_105.txt.gz
Cloud_Cover
100 24 0 0 1 5 5 14 5 29 97 100 100 100 100 100 99 100 100 100 100 100 100 100 100 100 100 100 100 100 100 100 100 100 100 100 78 100 100 100 76 73 86
18 4 0 3 5 5 5 5 12 63 59 95 100 98 100 100 100 100 100 100 100 100 100 100 100 100 100 100 100 100 100 100 100 100 100 100 100 98 92 100 83 99 100
5 2 1 1 5 4 5 56 71 96 53 76 100 99 100 100 100 100 100 100 100 100 100 99 100 100 100 100 100 100 100 100 100 100 100 100 100 100 100 93 78 87 100
5 0 11 5 5 5 8 52 60 100 92 92 100 72 20 70 29 84 100 100 100 100 100 100 100 100 100 100 100 100 100 100 100 100 100 100 100 100 100 100 100 100 97
11 0 5 100 70 9 5 93 99 100 100 98 68 86 42 89 97 100 100 100 100 100 100 100 100 100 100 100 100 100 100 100 100 100 100 100 100 100 100 100 100 72 49
6 0 5 87 100 16 25 62 100 100 100 100 85 56 100 42 50 60 100 100 99 100 96 95 100 100 100 100 100 100 100 100 100 100 100 100 100 100 100 100 100 100 100
0 0 1 5 100 100 89 87 79 100 100 100 97 100 100 32 24 95 100 100 100 100 100 100 100 100 100 100 100 100 100 100 100 100 100 100 100 100 100 100 100 100 93
0 0 3 89 100 100 75 87 99 100 100 100 100 100 53 22 15 30 95 93 89 100 100 100 100 100 100 100 100 100 100 100 100 100 100 100 100 100 100 100 100 100 100
1 0 3 0 54 85 77 100 100 100 100 100 100 100 43 15 35 66 100 100 96 98 97 100 100 100 100 100 100 100 100 100 100 100 100 100 100 100 100 100 100 100 100
4 6 3 0 0 3 54 100 100 100 100 100 100 84 51 37 49 66 100 100 70 87 87 100 100 100 100 100 100 100 100 100 100 100 100 100 100 100 100 100 100 100 100
5 70 6 5 38 94 100 100 100 100 100 100 100 89 100 64 64 65 100 97 49 88 97 100 100 100 100 100 100 100 100 100 100 100 100 100 100 100 100 100 100 100 100
6 46 100 93 98 86 100 100 100 100 100 100 100 99 100 90 76 73 86 90 54 81 100 100 100 100 100 100 100 100 100 100 100 100 100 100 100 100 99 100 100 100 100
12 56 100 100 100 100 100 100 100 100 100 100 100 100 100 100 92 84 89 83 71 100 100 100 100 100 100 100 100 100 100 100 100 100 100 100 100 100 100 100 100 100 100
10 69 100 100 100 100 100 100 100 100 100 100 100 100 100 96 80 100 91 79 74 89 100 100 100 100 100 100 100 100 100 100 100 100 100 100 100 100 100 100 100 100 100
37 100 100 100 100 100 100 100 100 100 100 100 100 100 100 100 100 100 100 60 62 60 73 100 100 100 100 100 100 100 100 100 100 100 100 100 100 100 100 100 100 100 100
74 100 100 100 100 100 100 100 100 100 100 100 100 100 100 100 100 100 100 96 96 99 61 100 100 100 100 100 100 100 100 100 100 100 100 100 100 100 100 100 100 100 100
100 100 100 100 100 100 100 100 100 100 100 100 100 100 100 100 100 100 100 100 99 92 38 96 100 100 100 75 33 87 100 100 100 100 100 100 100 100 100 100 100 100 100
100 100 100 100 100 100 100 100 100 100 100 100 100 100 100 100 100 100 100 100 100 100 100 100 100 100 100 100 100 64 47 78 79 73 81 99 100 100 100 100 100 100 100
100 100 100 100 100 100 100 100 100 100 100 100 100 100 100 100 100 100 100 100 100 100 100 100 100 100 100 100 100 100 100 77 60 67 56 50 94 100 100 100 100 100 100
100 100 100 100 100 100 100 100 100 100 100 100 100 100 100 100 100 100 100 100 100 100 100 100 100 100 100 100 100 100 100 100 100 100 100 100 100 100 100 100 100 100 100
100 100 100 100 100 100 100 100 100 100 100 100 100 100 100 100 100 100 100 100 100 100 100 100 100 100 100 100 100 100 100 100 100 100 100 100 100 100 100 100 100 100 100
100 100 100 100 100 100 100 100 100 100 100 100 100 100 100 100 100 100 100 100 100 100 100 100 100 100 100 100 100 100 100 100 100 100 100 100 100 100 100 100 100 100 100
100 100 100 100 100 100 100 100 100 100 100 100 100 100 100 100 100 100 100 100 100 100 100 100 100 100 100 100 100 100 100 100 100 100 100 100 100 100 100 100 100 100 100
100 100 100 100 100 100 100 100 100 100 100 100 100 100 100 100 100 100 100 100 100 100 100 100 100 100 100 100 100 100 100 100 100 100 100 100 100 100 100 100 100 100 100
100 100 100 100 100 100 100 100 100 100 100 100 100 100 100 100 100 100 100 100 100 100 100 100 100 100 100 100 100 100 100 100 100 100 100 100 100 100 100 100 100 100 100
100 100 100 100 100 100 100 100 100 94 92 81 99 100 100 100 100 100 100 100 100 100 100 100 100 100 100 100 100 97 100 100 87 68 86 100 100 100 100 100 99 100 100